DW9396 Weather Reports


Display with metric or nautical units.
time (UTC)temp
F
wind
direction
speed
MPH
gust
MPH
rain 1hr
in
rain 24hr
in
rain mn
in
humidity
%
barometer
mb
20260902173057 67 334 1.0 2.0 0.00 0.00 0.00 53 1016.0
20260902171605 65 127 0.0 3.0 0.00 0.00 0.00 55 1016.1
20260902170048 64 187 0.0 1.0 0.00 0.00 0.00 59 1016.1
20260902164544 63 188 0.0 1.0 0.00 0.00 0.00 58 1016.1
20260902163040 61 187 0.0 1.0 0.00 0.00 0.00 64 1016.0
20260902161537 61 188 0.0 1.0 0.00 0.00 0.00 65 1015.9
20260902160037 58 142 0.0 1.0 0.00 0.00 0.00 71 1015.9
20260902154533 55 142 0.0 1.0 0.00 0.00 0.00 74 1016.0
20260902153032 54 142 0.0 0.0 0.00 0.00 0.00 75 1016.1
20260902151525 52 142 0.0 1.0 0.00 0.00 0.00 78 1016.1
20260902150023 50 141 0.0 2.0 0.00 0.00 0.00 82 1016.1
20260902144518 48 136 0.0 2.0 0.00 0.00 0.00 83 1016.3
20260902143017 46 132 0.0 1.0 0.00 0.00 0.00 85 1016.1
20260902141515 45 133 1.0 1.0 0.00 0.00 0.00 86 1015.9
20260902140013 45 148 2.0 3.0 0.00 0.00 0.00 86 1015.6
20260902134515 44 134 0.0 1.0 0.00 0.00 0.00 88 1015.5
20260902133012 44 134 0.0 1.0 0.00 0.00 0.00 87 1015.3
20260902131512 44 134 0.0 0.0 0.00 0.00 0.00 87 1014.9
20260902130010 44 134 0.0 1.0 0.00 0.00 0.00 87 1014.9
20260902124511 44 134 0.0 0.0 0.00 0.00 0.00 87 1014.8
20260902123020 44 134 0.0 1.0 0.00 0.00 0.00 87 1014.7
20260902121508 44 134 0.0 1.0 0.00 0.00 0.00 86 1014.6
20260902120007 44 134 0.0 2.0 0.00 0.00 0.00 87 1014.6
20260902114504 44 138 0.0 2.0 0.00 0.00 0.00 86 1014.7
20260902113002 44 138 1.0 2.0 0.00 0.00 0.00 87 1015.0
20260902111606 44 142 0.0 1.0 0.00 0.00 0.00 86 1015.0
20260902110107 45 142 1.0 2.0 0.00 0.00 0.00 87 1015.0
20260902104609 44 133 0.0 1.0 0.00 0.00 0.00 87 1015.1
20260902103056 44 132 0.0 0.0 0.00 0.00 0.00 87 1015.1
20260902101555 45 133 0.0 1.0 0.00 0.00 0.00 86 1015.0
20260902100053 45 133 1.0 2.0 0.00 0.00 0.00 86 1014.9
20260902094554 45 132 0.0 0.0 0.00 0.00 0.00 87 1014.8
20260902093052 45 133 0.0 0.0 0.00 0.00 0.00 86 1015.0
20260902091555 45 132 0.0 0.0 0.00 0.00 0.00 86 1014.8
20260902090049 46 132 0.0 1.0 0.00 0.00 0.00 85 1014.8
20260902084550 46 133 0.0 2.0 0.00 0.00 0.00 85 1014.8
20260902083049 46 142 0.0 1.0 0.00 0.00 0.00 85 1014.9
20260902081542 47 142 0.0 1.0 0.00 0.00 0.00 85 1014.8
20260902080057 47 142 0.0 1.0 0.00 0.00 0.00 85 1015.0
20260902074541 47 144 0.0 1.0 0.00 0.00 0.00 84 1014.8
20260902073039 47 143 0.0 1.0 0.00 0.00 0.00 84 1014.8
20260902071538 48 144 0.0 2.0 0.00 0.00 0.00 84 1014.6
20260902070036 48 150 0.0 1.0 0.00 0.00 0.00 84 1014.6
20260902064534 48 56 0.0 0.0 0.00 0.00 0.00 83 1014.6
20260902063035 49 56 0.0 1.0 0.00 0.00 0.00 82 1014.8
20260902061558 49 119 0.0 1.0 0.00 0.00 0.00 81 1015.0
20260902060036 50 120 0.0 1.0 0.00 0.00 0.00 80 1015.1
20260902054544 51 36 0.0 0.0 0.00 0.00 0.00 81 1015.3
20260902053033 51 36 0.0 0.0 0.00 0.00 0.00 80 1015.4
20260902051532 52 36 0.0 0.0 0.00 0.00 0.00 80 1015.4
20260902050032 52 36 0.0 0.0 0.00 0.00 0.00 78 1015.2
20260902044532 53 35 0.0 0.0 0.00 0.00 0.00 76 1015.2
20260902043029 54 36 0.0 0.0 0.00 0.00 0.00 74 1014.9
20260902041527 54 36 0.0 1.0 0.00 0.00 0.00 72 1014.6
20260902040025 55 36 0.0 0.0 0.00 0.00 0.00 69 1014.3
20260902034524 56 39 0.0 0.0 0.00 0.00 0.00 68 1014.0
20260902033021 56 36 0.0 0.0 0.00 0.00 0.00 66 1013.7
20260902031521 57 36 0.0 0.0 0.00 0.00 0.00 64 1013.5
20260902030018 58 36 0.0 1.0 0.00 0.00 0.00 63 1013.3
20260902024522 59 96 0.0 1.0 0.00 0.00 0.00 61 1013.0
20260902023021 60 53 0.0 0.0 0.00 0.00 0.00 59 1012.7
20260902021520 62 52 0.0 0.0 0.00 0.00 0.00 57 1012.6
20260902020020 63 52 0.0 1.0 0.00 0.00 0.00 55 1012.5
20260902014528 64 55 0.0 3.0 0.00 0.00 0.00 53 1012.4
20260902013017 65 27 0.0 2.0 0.00 0.00 0.00 51 1012.2
20260902011517 66 26 0.0 2.0 0.00 0.00 0.00 50 1012.2
20260902010116 67 276 0.0 2.0 0.00 0.00 0.00 47 1012.1
20260902004517 68 348 0.0 3.0 0.00 0.00 0.00 47 1012.1
20260902003014 67 58 1.0 3.0 0.00 0.00 0.00 49 1012.1
20260902001514 67 34 1.0 3.0 0.00 0.00 0.00 48 1012.1
20260902000023 68 281 0.0 4.0 0.00 0.00 0.00 47 1012.1
20260901234514 69 27 1.0 3.0 0.00 0.00 0.00 47 1012.2
20260901233013 69 23 1.0 4.0 0.00 0.00 0.00 47 1012.3
20260901231514 69 269 1.0 5.0 0.00 0.00 0.00 48 1012.3
20260901230032 68 177 0.0 2.0 0.00 0.00 0.00 48 1012.4
20260901224514 68 327 1.0 3.0 0.00 0.00 0.00 50 1012.3
20260901223013 70 55 0.0 2.0 0.00 0.00 0.00 47 1012.2
20260901221514 70 304 0.0 3.0 0.00 0.00 0.00 46 1012.4
20260901220012 71 18 1.0 3.0 0.00 0.00 0.00 44 1012.4
20260901214510 71 9 0.0 3.0 0.00 0.00 0.00 46 1012.4
20260901213032 70 57 1.0 3.0 0.00 0.00 0.00 46 1012.5
20260901211516 71 17 2.0 6.0 0.00 0.00 0.00 44 1012.4
20260901210017 72 297 1.0 6.0 0.00 0.00 0.00 43 1012.2
20260901204511 72 15 0.0 3.0 0.00 0.00 0.00 44 1012.3
20260901203020 71 332 2.0 5.0 0.00 0.00 0.00 45 1012.4
20260901201511 72 197 1.0 5.0 0.00 0.00 0.00 46 1012.4
20260901200019 72 63 0.0 6.0 0.00 0.00 0.00 47 1012.5
20260901194509 74 285 1.0 6.0 0.00 0.00 0.00 36 1012.4
20260901193008 73 188 0.0 4.0 0.00 0.00 0.00 39 1012.4
20260901191502 72 323 1.0 3.0 0.00 0.00 0.00 47 1012.4
20260901190059 69 57 0.0 2.0 0.00 0.00 0.00 55 1012.4
20260901184556 67 27 0.0 7.0 0.00 0.00 0.00 58 1012.6
20260901183054 66 293 1.0 3.0 0.00 0.00 0.00 60 1012.9
20260901181552 65 323 1.0 4.0 0.00 0.00 0.00 61 1012.9
20260901180049 65 47 1.0 4.0 0.00 0.00 0.00 62 1013.0
20260901174547 62 5 1.0 3.0 0.00 0.00 0.00 67 1012.9